Time,TemperatureF,DewpointF,PressureIn,WindDirection,WindDirectionDegrees,WindSpeedMPH,WindSpeedGustMPH,Humidity,HourlyPrecipIn,Conditions,Clouds,dailyrainin,SoftwareType,DateUTC
2013-04-04 00:06:00,52.3,46.7,29.91,North,0,0.0,-999.0,81,0.00,,,0.00,open2300 v1.10,2013-04-04 07:06:00,
2013-04-04 00:21:00,52.3,46.7,29.91,North,0,0.0,-999.0,81,0.00,,,0.00,open2300 v1.10,2013-04-04 07:21:00,
2013-04-04 00:36:00,52.2,46.5,29.91,North,0,0.0,-999.0,81,0.00,,,0.00,open2300 v1.10,2013-04-04 07:36:00,
2013-04-04 00:51:00,52.0,46.7,29.91,North,0,0.0,-999.0,82,0.00,,,0.00,open2300 v1.10,2013-04-04 07:51:00,
2013-04-04 01:07:00,52.0,46.7,29.90,North,0,0.0,-999.0,82,0.00,,,0.00,open2300 v1.10,2013-04-04 08:07:00,
2013-04-04 01:21:00,52.2,46.8,29.91,North,0,0.0,-999.0,82,0.00,,,0.00,open2300 v1.10,2013-04-04 08:21:00,
2013-04-04 01:36:00,52.3,47.0,29.90,North,0,0.0,-999.0,82,0.00,,,0.00,open2300 v1.10,2013-04-04 08:36:00,
2013-04-04 01:51:00,52.5,47.2,29.90,North,0,0.0,-999.0,82,0.00,,,0.00,open2300 v1.10,2013-04-04 08:51:00,
2013-04-04 02:07:00,52.9,47.5,29.90,North,0,0.0,-999.0,82,0.00,,,0.00,open2300 v1.10,2013-04-04 09:07:00,
2013-04-04 02:21:00,53.1,47.7,29.89,North,0,0.0,-999.0,82,0.00,,,0.00,open2300 v1.10,2013-04-04 09:21:00,
2013-04-04 02:36:00,53.1,47.7,29.89,North,0,0.0,-999.0,82,0.00,,,0.00,open2300 v1.10,2013-04-04 09:36:00,
2013-04-04 02:51:00,53.2,47.9,29.88,North,0,0.0,-999.0,82,0.00,,,0.00,open2300 v1.10,2013-04-04 09:51:00,
2013-04-04 03:07:00,52.9,47.5,29.89,North,0,0.0,-999.0,82,0.00,,,0.00,open2300 v1.10,2013-04-04 10:07:00,
2013-04-04 03:21:00,52.9,47.5,29.89,North,0,0.0,-999.0,82,0.00,,,0.00,open2300 v1.10,2013-04-04 10:21:00,
2013-04-04 03:36:00,52.9,47.9,29.89,North,0,0.0,-999.0,83,0.00,,,0.00,open2300 v1.10,2013-04-04 10:36:00,
2013-04-04 03:51:00,52.7,47.7,29.89,North,0,0.0,-999.0,83,0.00,,,0.00,open2300 v1.10,2013-04-04 10:51:00,
2013-04-04 04:07:00,52.7,47.7,29.89,North,0,0.0,-999.0,83,0.00,,,0.00,open2300 v1.10,2013-04-04 11:07:00,
2013-04-04 04:21:00,52.9,47.9,29.89,North,0,0.0,-999.0,83,0.00,,,0.00,open2300 v1.10,2013-04-04 11:21:00,
2013-04-04 04:36:00,52.9,47.9,29.88,North,0,0.0,-999.0,83,0.00,,,0.00,open2300 v1.10,2013-04-04 11:36:00,
2013-04-04 04:51:00,52.9,47.9,29.88,North,0,0.0,-999.0,83,0.00,,,0.00,open2300 v1.10,2013-04-04 11:51:00,
2013-04-04 05:07:00,52.7,48.0,29.87,North,0,0.0,-999.0,84,0.00,,,0.00,open2300 v1.10,2013-04-04 12:07:00,
2013-04-04 05:21:00,52.7,48.6,29.87,North,0,0.0,-999.0,86,0.00,,,0.00,open2300 v1.10,2013-04-04 12:21:00,
2013-04-04 05:36:00,52.9,49.4,29.87,North,0,0.0,-999.0,88,0.00,,,0.00,open2300 v1.10,2013-04-04 12:36:00,
2013-04-04 05:51:00,52.9,49.7,29.87,North,0,0.0,-999.0,89,0.00,,,0.00,open2300 v1.10,2013-04-04 12:51:00,
2013-04-04 06:07:00,53.2,50.7,29.87,North,0,0.0,-999.0,91,0.00,,,0.00,open2300 v1.10,2013-04-04 13:07:00,
2013-04-04 06:21:00,53.2,50.9,29.87,North,0,0.0,-999.0,92,0.00,,,0.00,open2300 v1.10,2013-04-04 13:21:00,
2013-04-04 06:36:00,53.2,50.9,29.88,North,0,0.0,-999.0,92,0.00,,,0.00,open2300 v1.10,2013-04-04 13:36:00,
2013-04-04 06:51:00,53.2,51.2,29.88,North,0,0.0,-999.0,93,0.00,,,0.00,open2300 v1.10,2013-04-04 13:51:00,
2013-04-04 07:07:00,53.2,51.2,29.89,North,0,0.0,-999.0,93,0.00,,,0.00,open2300 v1.10,2013-04-04 14:07:00,
2013-04-04 07:21:00,53.2,51.2,29.89,North,0,0.0,-999.0,93,0.00,,,0.00,open2300 v1.10,2013-04-04 14:21:00,
2013-04-04 07:36:00,53.2,51.5,29.90,North,0,0.0,-999.0,94,0.00,,,0.00,open2300 v1.10,2013-04-04 14:36:00,
2013-04-04 07:51:00,53.2,51.5,29.91,North,0,0.0,-999.0,94,0.00,,,0.00,open2300 v1.10,2013-04-04 14:51:00,
2013-04-04 08:06:00,53.4,51.7,29.92,North,0,0.0,-999.0,94,0.00,,,0.00,open2300 v1.10,2013-04-04 15:06:00,
2013-04-04 08:21:00,53.8,52.0,29.92,North,0,0.0,-999.0,94,0.00,,,0.00,open2300 v1.10,2013-04-04 15:21:00,
2013-04-04 08:36:00,54.0,52.2,29.92,North,0,0.0,-999.0,94,0.00,,,0.00,open2300 v1.10,2013-04-04 15:36:00,
2013-04-04 08:51:00,54.3,52.6,29.93,North,0,0.0,-999.0,94,0.00,,,0.00,open2300 v1.10,2013-04-04 15:51:00,
2013-04-04 09:06:00,54.3,52.6,29.93,North,0,0.0,-999.0,94,0.00,,,0.00,open2300 v1.10,2013-04-04 16:06:00,
2013-04-04 09:21:00,54.7,53.0,29.94,North,0,0.0,-999.0,94,0.00,,,0.00,open2300 v1.10,2013-04-04 16:21:00,
2013-04-04 09:37:00,55.2,53.5,29.94,North,0,0.0,-999.0,94,0.00,,,0.00,open2300 v1.10,2013-04-04 16:37:00,
2013-04-04 09:52:00,55.6,53.8,29.94,North,0,0.0,-999.0,94,0.00,,,0.00,open2300 v1.10,2013-04-04 16:52:00,
2013-04-04 10:06:00,55.9,54.2,29.95,North,0,0.0,-999.0,94,0.00,,,0.00,open2300 v1.10,2013-04-04 17:06:00,
2013-04-04 10:21:00,56.5,54.8,29.95,North,0,0.0,-999.0,94,0.00,,,0.00,open2300 v1.10,2013-04-04 17:21:00,
2013-04-04 10:36:00,56.8,55.4,29.95,North,0,0.0,-999.0,95,0.00,,,0.00,open2300 v1.10,2013-04-04 17:36:00,
2013-04-04 10:51:00,57.4,55.7,29.96,North,0,0.0,-999.0,94,0.00,,,0.00,open2300 v1.10,2013-04-04 17:51:00,
2013-04-04 11:06:00,57.7,56.0,29.96,North,0,0.0,-999.0,94,0.00,,,0.00,open2300 v1.10,2013-04-04 18:06:00,
2013-04-04 11:21:00,58.8,57.1,29.96,North,0,0.0,-999.0,94,0.00,,,0.00,open2300 v1.10,2013-04-04 18:21:00,
2013-04-04 11:36:00,58.8,57.1,29.96,North,0,0.0,-999.0,94,0.00,,,0.00,open2300 v1.10,2013-04-04 18:36:00,
2013-04-04 11:51:00,59.7,58.0,29.96,North,0,0.0,-999.0,94,0.00,,,0.00,open2300 v1.10,2013-04-04 18:51:00,
2013-04-04 12:06:00,60.1,58.3,29.96,North,0,0.0,-999.0,94,0.00,,,0.00,open2300 v1.10,2013-04-04 19:06:00,
2013-04-04 12:21:00,60.6,58.9,29.96,North,0,0.0,-999.0,94,0.00,,,0.00,open2300 v1.10,2013-04-04 19:21:00,
2013-04-04 12:36:00,61.0,59.0,29.96,North,0,0.0,-999.0,93,0.00,,,0.00,open2300 v1.10,2013-04-04 19:36:00,
2013-04-04 12:51:00,61.5,59.5,29.96,North,0,0.0,-999.0,93,0.00,,,0.00,open2300 v1.10,2013-04-04 19:51:00,
2013-04-04 13:06:00,61.9,59.9,29.96,North,0,0.0,-999.0,93,0.00,,,0.00,open2300 v1.10,2013-04-04 20:06:00,
2013-04-04 13:21:00,62.1,60.0,29.96,North,0,0.0,-999.0,93,0.00,,,0.00,open2300 v1.10,2013-04-04 20:21:00,
2013-04-04 13:36:00,62.2,60.2,29.96,North,0,0.0,-999.0,93,0.00,,,0.00,open2300 v1.10,2013-04-04 20:36:00,
2013-04-04 13:51:00,62.6,60.6,29.96,North,0,0.0,-999.0,93,0.00,,,0.00,open2300 v1.10,2013-04-04 20:51:00,
2013-04-04 14:07:00,63.0,60.7,29.96,North,0,0.0,-999.0,92,0.00,,,0.00,open2300 v1.10,2013-04-04 21:07:00,
2013-04-04 14:21:00,63.0,60.7,29.96,North,0,0.0,-999.0,92,0.00,,,0.00,open2300 v1.10,2013-04-04 21:21:00,
2013-04-04 14:36:00,63.1,60.8,29.96,North,0,0.0,-999.0,92,0.00,,,0.00,open2300 v1.10,2013-04-04 21:36:00,
2013-04-04 14:51:00,63.1,60.8,29.96,North,0,0.0,-999.0,92,0.00,,,0.00,open2300 v1.10,2013-04-04 21:51:00,
2013-04-04 15:06:00,63.5,61.2,29.96,North,0,0.0,-999.0,92,0.00,,,0.00,open2300 v1.10,2013-04-04 22:06:00,
2013-04-04 15:21:00,63.3,61.0,29.97,North,0,0.0,-999.0,92,0.00,,,0.00,open2300 v1.10,2013-04-04 22:21:00,
2013-04-04 15:36:00,63.0,60.7,29.97,North,0,0.0,-999.0,92,0.00,,,0.00,open2300 v1.10,2013-04-04 22:36:00,
2013-04-04 15:51:00,62.8,60.5,29.97,North,0,0.0,-999.0,92,0.00,,,0.00,open2300 v1.10,2013-04-04 22:51:00,
2013-04-04 16:06:00,62.6,60.3,29.97,North,0,0.0,-999.0,92,0.00,,,0.00,open2300 v1.10,2013-04-04 23:06:00,
2013-04-04 16:21:00,62.8,60.5,29.98,North,0,0.0,-999.0,92,0.00,,,0.00,open2300 v1.10,2013-04-04 23:21:00,
2013-04-04 16:36:00,63.0,60.7,29.97,North,0,0.0,-999.0,92,0.00,,,0.00,open2300 v1.10,2013-04-04 23:36:00,
2013-04-04 16:51:00,63.1,60.8,29.97,North,0,0.0,-999.0,92,0.00,,,0.00,open2300 v1.10,2013-04-04 23:51:00,
2013-04-04 17:06:00,62.8,60.2,29.97,North,0,0.0,-999.0,91,0.00,,,0.00,open2300 v1.10,2013-04-05 00:06:00,
2013-04-04 17:21:00,62.6,60.0,29.97,North,0,0.0,-999.0,91,0.00,,,0.00,open2300 v1.10,2013-04-05 00:21:00,
2013-04-04 17:36:00,62.2,59.7,29.97,North,0,0.0,-999.0,91,0.00,,,0.00,open2300 v1.10,2013-04-05 00:36:00,
2013-04-04 17:51:00,61.5,58.6,29.97,North,0,0.0,-999.0,90,0.00,,,0.00,open2300 v1.10,2013-04-05 00:51:00,
2013-04-04 18:06:00,61.2,58.3,29.96,North,0,0.0,-999.0,90,0.00,,,0.00,open2300 v1.10,2013-04-05 01:06:00,
2013-04-04 18:21:00,60.6,57.7,29.96,North,0,0.0,-999.0,90,0.00,,,0.00,open2300 v1.10,2013-04-05 01:21:00,
2013-04-04 18:36:00,60.1,57.2,29.96,North,0,0.0,-999.0,90,0.00,,,0.00,open2300 v1.10,2013-04-05 01:36:00,
2013-04-04 18:52:00,59.5,56.3,29.96,North,0,0.0,-999.0,89,0.00,,,0.00,open2300 v1.10,2013-04-05 01:52:00,
2013-04-04 19:06:00,58.8,55.6,29.96,North,0,0.0,-999.0,89,0.00,,,0.00,open2300 v1.10,2013-04-05 02:06:00,
2013-04-04 19:21:00,58.8,55.6,29.97,North,0,0.0,-999.0,89,0.00,,,0.00,open2300 v1.10,2013-04-05 02:21:00,
2013-04-04 19:36:00,58.3,55.1,29.96,North,0,0.0,-999.0,89,0.00,,,0.00,open2300 v1.10,2013-04-05 02:36:00,
2013-04-04 19:51:00,57.9,54.7,29.95,North,0,0.0,-999.0,89,0.00,,,0.00,open2300 v1.10,2013-04-05 02:51:00,
2013-04-04 20:06:00,57.6,54.4,29.96,North,0,0.0,-999.0,89,0.00,,,0.00,open2300 v1.10,2013-04-05 03:06:00,
2013-04-04 20:21:00,57.4,54.5,29.96,North,0,0.0,-999.0,90,0.00,,,0.00,open2300 v1.10,2013-04-05 03:21:00,
2013-04-04 20:36:00,57.0,53.8,29.96,North,0,0.0,-999.0,89,0.00,,,0.00,open2300 v1.10,2013-04-05 03:36:00,
2013-04-04 20:51:00,57.0,53.8,29.96,North,0,0.0,-999.0,89,0.00,,,0.00,open2300 v1.10,2013-04-05 03:51:00,
2013-04-04 21:06:00,57.0,53.8,29.96,North,0,0.0,-999.0,89,0.00,,,0.00,open2300 v1.10,2013-04-05 04:06:00,
2013-04-04 21:21:00,56.8,53.3,29.98,North,0,0.0,-999.0,88,0.00,,,0.00,open2300 v1.10,2013-04-05 04:21:00,
2013-04-04 21:37:00,56.8,53.3,29.98,North,0,0.0,-999.0,88,0.00,,,0.00,open2300 v1.10,2013-04-05 04:37:00,
2013-04-04 21:51:00,56.8,53.0,29.99,North,0,0.0,-999.0,87,0.00,,,0.00,open2300 v1.10,2013-04-05 04:51:00,
2013-04-04 22:06:00,56.8,53.0,29.99,North,0,0.0,-999.0,87,0.00,,,0.00,open2300 v1.10,2013-04-05 05:06:00,
2013-04-04 22:21:00,56.8,53.0,29.99,North,0,0.0,-999.0,87,0.00,,,0.00,open2300 v1.10,2013-04-05 05:21:00,
2013-04-04 22:36:00,56.8,53.0,29.99,North,0,0.0,-999.0,87,0.00,,,0.00,open2300 v1.10,2013-04-05 05:36:00,
2013-04-04 22:51:00,57.0,53.2,29.99,North,0,0.0,-999.0,87,0.00,,,0.00,open2300 v1.10,2013-04-05 05:51:00,
2013-04-04 23:06:00,57.0,53.2,29.99,North,0,0.0,-999.0,87,0.00,,,0.00,open2300 v1.10,2013-04-05 06:06:00,
2013-04-04 23:22:00,57.0,52.8,29.99,North,0,0.0,-999.0,86,0.00,,,0.00,open2300 v1.10,2013-04-05 06:22:00,
2013-04-04 23:36:00,57.0,52.8,30.00,North,0,0.0,-999.0,86,0.00,,,0.00,open2300 v1.10,2013-04-05 06:36:00,
2013-04-04 23:51:00,57.0,52.8,30.00,North,0,0.0,-999.0,86,0.00,,,0.00,open2300 v1.10,2013-04-05 06:51:00,